{"data":{"norad_id":59647,"intl_designator":"2024-082S","name":"STARLINK-31801","alt_names":[],"object_type":"PAYLOAD","status":"ACTIVE","operator":null,"country":"US","launch_date":"2024-05-03","launch_site_code":"AFETR","launch_vehicle":null,"mission":null,"orbit_class":"UNKNOWN","rcs_meters":null,"size_class":null,"mass_kg":null,"dimensions":null,"purposes":["comms"],"wikipedia_slug":null,"has_3d_model":false,"image_url":null,"decayed_at":null,"tle_current":{"epoch":"2026-09-21T21:27:11.092032Z","epoch_age_seconds":47836,"freshness":"FRESH","line1":"1 59647U 24082S   26264.89387838 -.00000106  00000+0  56508-5 0  9997","line2":"2 59647  43.0015 112.1944 0000452 272.3201  87.7599 15.27576500134861","mean_motion":15.275765,"eccentricity":4.52e-5,"inclination_deg":43.0015,"raan_deg":112.1944,"arg_perigee_deg":272.3201,"mean_anomaly_deg":87.7599,"bstar":5.6508e-6,"rev_number":13486,"period_min":94.266964698658,"perigee_km":482.74945023353,"apogee_km":483.36970240403,"semimajor_km":6861.1965763188,"source":"CELESTRAK","updated_at":"2026-09-22T09:00:49.022547Z"}}}